GMMEGMMX

Guest
Details From GMME - SALE
To GMMX - MENARA
Flight Number -
Tags generated
Created
Modified
Stats Distance 161 nm / 297 km
Max Altitude 16,900 ft / 5,151 m
Waypoints 3
Social Downloads 0
Likes 0
Share VATSIM

Download

Looking for another format? Having issues loading an existing format? Contact us
Advertisement - Login to hide

Notes

Basic altitude profile: - Ascent Rate: 2500ft/min - Ascent Speed: 250kts - Cruise Altitude: 9000ft - Cruise Speed: 140kts - Descent Rate: 1500ft/min - Descent Speed: 250kts Options: - Use NATs: yes - Use PACOTS: yes - Use low airways: no - Use high airways: yes

Route

GMME PELIN GMMX

ID Type Via Altitude Latitude Longitude Leg Dist Tot Dist Heading (true) Name
O GMME APT - 0 ft / 0 m 34.05147˚ -6.75152˚ - 0 nm - SALE
PELIN FIX - 16,900 ft / 5,151 m 32.89417˚ -7.39667˚ 76 nm 76 nm 205° / 205° -
O GMMX APT - 0 ft / 0 m 31.60692˚ -8.03627˚ 83 nm 160 nm 203° / 203° MENARA

Altitude Profile

Advertisement - Login to hide

GMME

Details ICAO GMME (RBA)
Name SALE
Region Morocco
Timezone Africa/Casablanca (UTC+0.0)
Stats Elevation 276 ft / 84 m (AMSL)
Location 34.051468° -6.751519°
Runways 1
Magnetic Variation 1.551° W

METAR

GMME 130000Z 00000KT 8000 FEW013 SCT020 05/04 Q1023 NOSIG

Decode

TAF

TAF GMME 122300Z 1300/1406 VRB2KT 6000 SCT013 SCT016 BECMG 1307/1310 06012KT BECMG 1318/1320 14010KT TEMPO 1400/1406 VRB02KT 4000 BR

Decode

Departure Runways

ID Width Length Bearing (true) Bearing (mag) Surface Threshold Offset Overrun Length
04 148 ft / 45 m 11,503 ft / 3,506 m 31.24° 32.79° Asphalt 0 ft / 0 m 197 ft / 60 m
22 148 ft / 45 m 11,503 ft / 3,506 m 211.25° 212.80° Asphalt 0 ft / 0 m 197 ft / 60 m

GMMX

Details ICAO GMMX (RAK)
Name MENARA
Region Morocco
Timezone Africa/Casablanca (UTC+0.0)
Stats Elevation 1,545 ft / 471 m (AMSL)
Location 31.606920° -8.036265°
Runways 1
Magnetic Variation 2.000° W

METAR

GMMX 130000Z VRB02KT CAVOK 07/02 Q1021 NOSIG

Decode

TAF

TAF GMMX 122300Z 1300/1406 06006KT 8000 NSC TEMPO 1316/1321 34015KT

Decode

Destination Runways

ID Width Length Bearing (true) Bearing (mag) Surface Threshold Offset Overrun Length
10 148 ft / 45 m 10,169 ft / 3,100 m 95.99° 97.99° Asphalt 918 ft / 280 m 0 ft / 0 m
28 148 ft / 45 m 10,169 ft / 3,100 m 276.00° 278.00° Asphalt 0 ft / 0 m 0 ft / 0 m

Approach Navaids

Runway Type Ident Frequency Range Bearing (true) Bearing (mag) Slope Elevation
10 Localiser MAR 109.70 MHz 18 nm / 33 km 96.03° 98.02° - 1,545 ft / 471 m (AMSL)
10 Glidescope MAR 109.70 MHz 10 nm / 19 km 96.00° 98.00° 3.00° 1,558 ft / 475 m (AMSL)

Popular Alternatives